Regional Weather Roundup
Issued by NWS Cleveland, OH

Home | Current Version | Previous Version | Text Only | Print | Product List | Glossary Off
Versions: 1 2 3 4 5 6 7 8 9 10 11 12 13 14 15 16 17 18 19 20 21 22 23 24 25 26 27 28 29 30 31 32 33 34 35 36 37 38 39 40 41 42 43 44 45 46 47 48 49 50

000
ASUS41 KCLE 271002
RWRCLE
OHIO REGIONAL WEATHER ROUNDUP
NATIONAL WEATHER SERVICE CLEVELAND, OH
600 AM EDT TUE JUN 27 2017

NOTE: "FAIR" INDICATES FEW OR NO CLOUDS BELOW 12,000 FEET WITH NO
SIGNIFICANT WEATHER AND/OR OBSTRUCTIONS TO VISIBILITY.

OHZ001>008-015>018-024>027-034-035-043-044-271100-
   NORTHWEST OHIO

CITY           SKY/WX    TMP DP  RH WIND       PRES   REMARKS
DEFIANCE       MOCLDY    49  46  90 SW3       30.07R
FINDLAY        CLEAR     50  45  83 W5        30.06R
TOLEDO EXPRESS CLEAR     49  47  93 W7        30.05R
TOLEDO EXEC    CLEAR     52  48  86 W9        30.05R
LIMA           CLEAR     52  47  83 W6        30.07R
$$

OHZ009>014-019>023-028>033-038-089-271100-
   NORTHEAST OHIO

CITY           SKY/WX    TMP DP  RH WIND       PRES   REMARKS
CLE-HOPKINS    PTCLDY    54  50  86 SW8       30.04R
CLE-LAKEFRONT  MOCLDY    60  48  64 W17G26    30.00R
CUY CO. ARPT   NOT AVBL
LORAIN-ELYRIA  CLEAR     52  43  71 W10       30.04R
ASHTABULA      PTCLDY    52  52 100 S6        30.00F
AKRON-CANTON   PTCLDY    53  48  83 W8        30.03S
WOOSTER        CLEAR     52  48  86 W7        30.05R
MANSFIELD      CLEAR     51  49  92 W5        30.05R
YOUNGSTOWN     MOCLDY    51  49  92 W7        30.02R
$$

OHZ042-051>053-060>062-070>072-077>081-271100-
  SOUTHWEST OHIO

CITY           SKY/WX    TMP DP  RH WIND       PRES   REMARKS
CINC-COVINGTON CLEAR     52  49  89 SW5       30.12R
CINC-LUNKEN    CLEAR     53  51  93 CALM      30.12R
HAMILTON       CLEAR     50  49  96 CALM      30.12R
DAYTON         CLEAR     52  49  89 W7        30.10R
WRIGHT-PAT AFB CLEAR     51  51 100 SW3       30.09R
DAYTON GENERAL CLEAR     54  49  83 W3        30.10R
WILMINGTON     CLEAR     53  50  89 W6        30.10R
$$

OHZ036-037-039>041-045>050-054>059-063>069-073>076-082>088-271100-
  CENTRAL AND SOUTHEAST OHIO

CITY           SKY/WX    TMP DP  RH WIND       PRES   REMARKS
COLUMBUS       PTCLDY    53  51  93 W6        30.07R
OSU AIRPORT    CLEAR     50  50 100 W6        30.07R
BOLTON FIELD   CLEAR     52  49  91 W3        30.09R
RICKENBACK AFB CLEAR     51  50  95 S3        30.08R
NEWARK         CLEAR     52  49  89 CALM      30.06R
MARION         CLEAR     52  48  86 W3        30.07R
LANCASTER      CLEAR     51  49  92 CALM      30.08R
ZANESVILLE     PTCLDY    52  50  93 SW3       30.06R
NEW PHILLY     NOT AVBL
$$




USA.gov is the U.S. government's official web portal to all federal, state and local government web resources and services.